CW3642 Weather Reports


time (UTC)temp
C
wind
direction
speed
KPH
gust
KPH
rain 1hr
cm
rain 24hr
cm
rain mn
cm
humidity
%
barometer
mb
20260509124830 12 360 17.7 6.4 0.00 0.00 0.00 71 997.0
20260509124330 12 360 6.4 6.4 0.00 0.00 0.00 71 997.0
20260509123830 12 360 20.9 6.4 0.00 0.00 0.00 71 997.0
20260509123330 12 360 6.4 6.4 0.00 0.00 0.00 72 997.0
20260509122830 12 360 9.7 6.4 0.00 0.00 0.00 72 997.1
20260509122330 12 360 9.7 6.4 0.00 0.00 0.00 71 996.9
20260509121830 12 360 14.5 6.4 0.00 0.00 0.00 70 997.0
20260509121330 12 360 19.3 6.4 0.00 0.00 0.00 70 996.9
20260509120830 12 360 22.5 6.4 0.00 0.00 0.00 70 996.9
20260509120330 12 360 22.5 6.4 0.00 0.00 0.00 70 996.8
20260509115830 12 360 6.4 6.4 0.00 0.00 0.00 69 996.9
20260509115330 12 360 6.4 6.4 0.00 0.00 0.00 69 997.1
20260509114330 12 360 14.5 6.4 0.00 0.00 0.00 69 997.2
20260509113830 11 360 9.7 6.4 0.00 0.00 0.00 69 997.0
20260509113330 11 360 8.0 6.4 0.00 0.00 0.00 69 997.0
20260509111830 11 360 8.0 6.4 0.00 0.00 0.00 67 997.1
20260509111330 11 360 4.8 6.4 0.00 0.00 0.00 67 997.2
20260509110830 10 360 12.9 6.4 0.00 0.00 0.00 67 997.0
20260509110330 10 360 4.8 6.4 0.00 0.00 0.00 66 996.9
20260509105830 10 360 4.8 6.4 0.00 0.00 0.00 65 996.9
20260509105330 10 360 4.8 6.4 0.00 0.00 0.00 64 997.0
20260509104830 10 360 3.2 6.4 0.00 0.00 0.00 64 997.0
20260509104330 10 360 3.2 6.4 0.00 0.00 0.00 64 997.2
20260509103830 10 360 4.8 6.4 0.00 0.00 0.00 62 997.6
20260509103330 10 360 6.4 6.4 0.00 0.00 0.00 62 997.6
20260509102830 10 360 3.2 6.4 0.00 0.00 0.00 61 997.6
20260509102330 11 360 3.2 6.4 0.00 0.00 0.00 60 997.7
20260509101330 11 360 4.8 6.4 0.00 0.00 0.00 58 997.7
20260509100830 11 360 1.6 9.7 0.00 0.00 0.00 57 997.7
20260509095822 11 360 4.8 0.0 0.00 0.00 0.00 56 997.9
20260509095322 11 360 8.0 0.0 0.00 0.00 0.00 56 998.1
20260509094822 11 360 4.8 0.0 0.00 0.00 0.00 55 998.1
20260509093822 11 360 4.8 0.0 0.00 0.00 0.00 55 998.4
20260509093322 11 360 6.4 0.0 0.00 0.00 0.00 55 998.4
20260509092822 11 360 6.4 0.0 0.00 0.00 0.00 53 998.5
20260509092322 11 360 3.2 0.0 0.00 0.00 0.00 52 998.5
20260509091822 11 360 8.0 0.0 0.00 0.00 0.00 51 998.6
20260509090822 12 360 4.8 0.0 0.00 0.00 0.00 49 998.7
20260509085821 12 360 19.3 0.0 0.00 0.00 0.00 47 999.0
20260509084821 12 360 4.8 0.0 0.00 0.00 0.00 45 999.2
20260509084321 12 360 8.0 0.0 0.00 0.00 0.00 44 999.3
20260509083822 12 360 9.7 0.0 0.00 0.00 0.00 43 999.3
20260509083322 12 360 6.4 0.0 0.00 0.00 0.00 43 999.4
20260509082822 12 360 12.9 0.0 0.00 0.00 0.00 43 999.4
20260509082322 12 187 4.8 0.0 0.00 0.00 0.00 43 999.4
20260509081821 12 360 12.9 0.0 0.00 0.00 0.00 43 999.4
20260509081321 12 360 4.8 0.0 0.00 0.00 0.00 43 999.5
20260509080322 11 360 6.4 0.0 0.00 0.00 0.00 44 999.6
20260509075821 11 360 1.6 0.0 0.00 0.00 0.00 44 999.6
20260509074821 11 360 9.7 0.0 0.00 0.00 0.00 44 999.7
20260509074321 11 360 3.2 0.0 0.00 0.00 0.00 46 999.8
20260509073822 11 360 9.7 0.0 0.00 0.00 0.00 46 999.8
20260509073322 10 360 6.4 0.0 0.00 0.00 0.00 47 999.8
20260509072321 10 360 6.4 0.0 0.00 0.00 0.00 51 1000.0
20260509071821 10 360 6.4 0.0 0.00 0.00 0.00 50 1000.1
20260509070821 10 360 6.4 0.0 0.00 0.00 0.00 51 1000.2
20260509070321 10 360 9.7 0.0 0.00 0.00 0.00 51 1000.4
20260509065822 10 360 0.0 0.0 0.00 0.00 0.00 53 1000.4
20260509065322 10 360 1.6 0.0 0.00 0.00 0.00 53 1000.6
20260509063822 10 360 6.4 0.0 0.00 0.00 0.00 54 1000.9
20260509063322 10 360 0.0 0.0 0.00 0.00 0.00 55 1001.0
20260509062822 10 360 3.2 0.0 0.00 0.00 0.00 55 1001.1
20260509062321 10 187 0.0 0.0 0.00 0.00 0.00 56 1001.2
20260509061821 9 186 0.0 0.0 0.00 0.00 0.00 58 1001.3
20260509061321 9 360 0.0 0.0 0.00 0.00 0.00 58 1001.4
20260509060822 9 360 0.0 0.0 0.00 0.00 0.00 58 1001.5
20260509055837 9 360 0.0 0.0 0.00 0.00 0.00 55 1001.8
20260509055337 9 360 0.0 0.0 0.00 0.00 0.00 56 1001.8
20260509054837 10 360 0.0 0.0 0.00 0.00 0.00 55 1001.8
20260509054337 10 171 0.0 0.0 0.00 0.00 0.00 55 1001.8
20260509053337 10 360 0.0 0.0 0.00 0.00 0.00 54 1001.9
20260509052837 10 360 0.0 0.0 0.00 0.00 0.00 54 1002.0
20260509052337 10 360 0.0 0.0 0.00 0.00 0.00 54 1002.1
20260509051837 10 360 0.0 0.0 0.00 0.00 0.00 56 1002.2
20260509051336 10 360 0.0 0.0 0.00 0.00 0.00 55 1002.2
20260509050837 10 360 0.0 0.0 0.00 0.00 0.00 57 1002.3
20260509050337 10 360 0.0 0.0 0.00 0.00 0.00 56 1002.5
20260509045836 10 360 0.0 0.0 0.00 0.00 0.00 56 1002.5
20260509045337 10 360 0.0 0.0 0.00 0.00 0.00 57 1002.5
20260509044837 10 360 0.0 0.0 0.00 0.00 0.00 58 1002.6
20260509044336 10 360 0.0 0.0 0.00 0.00 0.00 59 1002.7
20260509043837 10 360 0.0 0.0 0.00 0.00 0.00 58 1002.8
20260509042837 11 360 0.0 0.0 0.00 0.00 0.00 59 1003.0
20260509042337 10 360 4.8 0.0 0.00 0.00 0.00 56 1003.1
20260509041837 10 360 3.2 0.0 0.00 0.00 0.00 54 1003.1
20260509041337 9 360 4.8 0.0 0.00 0.00 0.00 56 1003.2
20260509040837 8 360 0.0 0.0 0.00 0.00 0.00 61 1003.2
20260509040337 8 360 0.0 0.0 0.00 0.00 0.00 62 1003.2
20260509035836 8 360 0.0 0.0 0.00 0.00 0.00 66 1003.3
20260509035337 7 360 0.0 0.0 0.00 0.00 0.00 68 1003.3
20260509033837 6 360 0.0 0.0 0.00 0.00 0.00 78 1003.4
20260509033336 6 360 0.0 0.0 0.00 0.00 0.00 80 1003.3
20260509032836 6 360 0.0 0.0 0.00 0.00 0.00 80 1003.4
20260509031836 6 360 0.0 0.0 0.00 0.00 0.00 81 1003.5
20260509031337 6 360 0.0 0.0 0.00 0.00 0.00 80 1003.6
20260509030837 6 360 0.0 0.0 0.00 0.00 0.00 80 1003.6
20260509030337 6 360 0.0 0.0 0.00 0.00 0.00 81 1003.6
20260509025337 6 360 0.0 0.0 0.00 0.00 0.00 80 1003.5
20260509024837 6 360 0.0 0.0 0.00 0.00 0.00 80 1003.5
20260509024336 6 360 0.0 0.0 0.00 0.00 0.00 80 1003.7
20260509023836 6 360 0.0 0.0 0.00 0.00 0.00 79 1003.7
20260509023337 6 360 0.0 0.0 0.00 0.00 0.00 78 1003.8
20260509022836 6 360 0.0 0.0 0.00 0.00 0.00 78 1003.8
20260509022336 6 360 0.0 0.0 0.00 0.00 0.00 78 1003.8
20260509021837 6 360 0.0 0.0 0.00 0.00 0.00 77 1003.9
20260509021337 7 360 0.0 0.0 0.00 0.00 0.00 76 1003.9
20260509015851 7 360 0.0 0.0 0.00 0.00 0.00 74 1004.0
20260509015321 7 360 0.0 0.0 0.00 0.00 0.00 73 1003.9
20260509014821 7 360 0.0 0.0 0.00 0.00 0.00 73 1003.8
20260509014321 7 360 0.0 0.0 0.00 0.00 0.00 72 1003.8
20260509013821 8 360 0.0 0.0 0.00 0.00 0.00 70 1003.9
20260509013321 8 360 0.0 0.0 0.00 0.00 0.00 68 1003.9
20260509012821 8 360 0.0 0.0 0.00 0.00 0.00 69 1003.8
20260509011821 8 360 0.0 0.0 0.00 0.00 0.00 67 1003.9
20260509011321 9 360 0.0 0.0 0.00 0.00 0.00 65 1003.9
20260509010821 9 360 0.0 0.0 0.00 0.00 0.00 65 1004.0
20260509010320 9 360 0.0 0.0 0.00 0.00 0.00 64 1003.9
20260509005821 9 360 0.0 0.0 0.00 0.00 0.00 63 1003.9
20260509005321 9 360 0.0 0.0 0.00 0.00 0.00 63 1003.9
20260509004320 9 360 0.0 0.0 0.00 0.00 0.00 63 1003.9
20260509003821 9 360 0.0 0.0 0.00 0.00 0.00 63 1003.9
20260509003321 10 360 0.0 0.0 0.00 0.00 0.00 63 1003.9
20260509002821 10 360 0.0 0.0 0.00 0.00 0.00 64 1003.9
20260509002321 10 360 0.0 0.0 0.00 0.00 0.00 61 1003.9
20260509001820 10 360 0.0 0.0 0.00 0.00 0.00 59 1004.0
20260509001321 10 360 0.0 0.0 0.00 0.00 0.00 59 1004.0
20260509000821 10 360 0.0 0.0 0.00 0.00 0.00 57 1004.1
20260509000321 10 360 0.0 0.0 0.00 0.00 0.00 57 1004.1
20260508235821 10 360 0.0 0.0 0.00 0.00 0.00 59 1004.2
20260508235321 10 360 0.0 0.0 0.00 0.00 0.00 57 1004.0
20260508234821 10 360 0.0 0.0 0.00 0.00 0.00 56 1004.1
20260508234320 10 360 0.0 0.0 0.00 0.00 0.00 57 1004.2
20260508233820 10 17 0.0 0.0 0.00 0.00 0.00 56 1004.3
20260508232821 11 9 0.0 0.0 0.00 0.00 0.00 56 1004.2
20260508232321 11 5 0.0 0.0 0.00 0.00 0.00 55 1004.3
20260508231821 11 5 0.0 0.0 0.00 0.00 0.00 54 1004.3
20260508230821 11 5 0.0 0.0 0.00 0.00 0.00 53 1004.4
20260508230321 12 5 0.0 0.0 0.00 0.00 0.00 54 1004.4
20260508225820 12 5 0.0 0.0 0.00 0.00 0.00 53 1004.3
20260508224820 13 5 0.0 0.0 0.00 0.00 0.00 51 1004.4
20260508224321 13 360 0.0 0.0 0.00 0.00 0.00 49 1004.4
20260508223821 13 360 0.0 0.0 0.00 0.00 0.00 50 1004.4
20260508223321 13 360 0.0 0.0 0.00 0.00 0.00 49 1004.3
20260508222821 14 360 0.0 0.0 0.00 0.00 0.00 46 1004.3
20260508222321 14 360 0.0 0.0 0.00 0.00 0.00 43 1004.4
20260508221821 14 360 0.0 0.0 0.00 0.00 0.00 45 1004.4
20260508221321 14 360 0.0 0.0 0.00 0.00 0.00 44 1004.5
20260508220821 14 360 0.0 17.7 0.00 0.00 0.00 44 1004.7
20260508215838 14 360 0.0 17.7 0.00 0.00 0.00 44 1004.7
20260508215338 14 360 0.0 17.7 0.00 0.00 0.00 42 1004.8
20260508214838 15 360 0.0 17.7 0.00 0.00 0.00 44 1004.8
20260508214338 15 360 0.0 17.7 0.00 0.00 0.00 43 1004.8
20260508213838 15 360 0.0 17.7 0.00 0.00 0.00 44 1004.9
20260508213338 15 360 4.8 17.7 0.00 0.00 0.00 45 1004.9
20260508212838 15 355 0.0 17.7 0.00 0.00 0.00 43 1005.0
20260508212338 15 360 0.0 17.7 0.00 0.00 0.00 44 1004.9
20260508211838 15 360 0.0 17.7 0.00 0.00 0.00 46 1004.9
20260508211338 15 360 6.4 17.7 0.00 0.00 0.00 45 1005.0
20260508210838 15 360 0.0 17.7 0.00 0.00 0.00 45 1005.1
20260508210338 15 360 3.2 17.7 0.00 0.00 0.00 45 1005.2
20260508205838 15 360 6.4 17.7 0.00 0.00 0.00 43 1005.3
20260508205338 15 360 1.6 17.7 0.00 0.00 0.00 43 1005.4
20260508204838 15 238 0.0 17.7 0.00 0.00 0.00 43 1005.5
20260508204338 15 360 3.2 17.7 0.00 0.00 0.00 44 1005.6
20260508202838 14 360 6.4 17.7 0.00 0.00 0.00 45 1005.7
20260508201838 14 360 0.0 17.7 0.00 0.00 0.00 46 1006.0
20260508200338 14 360 1.6 17.7 0.00 0.00 0.00 45 1006.1
20260508195838 14 360 1.6 17.7 0.00 0.00 0.00 46 1006.0
20260508194838 14 360 6.4 17.7 0.00 0.00 0.00 45 1006.3
20260508194338 14 360 1.6 17.7 0.00 0.00 0.00 47 1006.4
20260508193838 14 360 8.0 17.7 0.00 0.00 0.00 46 1006.5
20260508193338 14 360 4.8 17.7 0.00 0.00 0.00 46 1006.5
20260508192838 14 5 1.6 17.7 0.00 0.00 0.00 47 1006.6
20260508191838 13 360 0.0 17.7 0.00 0.00 0.00 49 1006.7
20260508191338 13 360 1.6 17.7 0.00 0.00 0.00 47 1006.7
20260508190838 13 360 14.5 17.7 0.00 0.00 0.00 49 1006.7
20260508190338 14 360 3.2 17.7 0.00 0.00 0.00 46 1006.9
20260508185838 13 360 4.8 17.7 0.00 0.00 0.00 45 1006.9
20260508185338 13 360 6.4 17.7 0.00 0.00 0.00 48 1006.9
20260508184838 13 360 6.4 17.7 0.00 0.00 0.00 46 1006.9
20260508184338 14 355 1.6 17.7 0.00 0.00 0.00 44 1006.9
20260508183838 14 360 6.4 17.7 0.00 0.00 0.00 45 1007.0
20260508183338 14 360 4.8 17.7 0.00 0.00 0.00 46 1007.0
20260508182838 14 360 3.2 17.7 0.00 0.00 0.00 47 1007.0
20260508182338 13 360 1.6 17.7 0.00 0.00 0.00 49 1007.0
20260508181338 13 360 8.0 17.7 0.00 0.00 0.00 46 1006.9
20260508180838 13 360 17.7 19.3 0.00 0.00 0.00 45 1007.0
20260508175823 13 360 12.9 19.3 0.00 0.00 0.00 49 1007.0
20260508175323 13 360 3.2 19.3 0.00 0.00 0.00 47 1007.0
20260508174823 13 360 4.8 19.3 0.00 0.00 0.00 48 1007.0
20260508174323 13 360 3.2 19.3 0.00 0.00 0.00 48 1007.1
20260508173823 13 360 12.9 19.3 0.00 0.00 0.00 49 1007.1
20260508172821 13 360 8.0 12.9 0.00 0.00 0.00 49 1007.3
20260508171821 13 360 14.5 12.9 0.00 0.00 0.00 49 1007.4
20260508171321 13 360 0.0 12.9 0.00 0.00 0.00 51 1007.4
20260508170821 13 360 9.7 12.9 0.00 0.00 0.00 48 1007.6
20260508170322 12 360 4.8 12.9 0.00 0.00 0.00 52 1007.5
20260508165822 12 360 14.5 12.9 0.00 0.00 0.00 50 1007.6
20260508165322 12 360 6.4 12.9 0.00 0.00 0.00 48 1007.6
20260508164821 12 360 3.2 12.9 0.00 0.00 0.00 49 1007.7
20260508164322 12 360 6.4 12.9 0.00 0.00 0.00 49 1007.7
20260508163822 12 360 14.5 12.9 0.00 0.00 0.00 48 1007.8
20260508163322 12 360 4.8 12.9 0.00 0.00 0.00 50 1007.8
20260508162821 12 360 0.0 12.9 0.00 0.00 0.00 50 1007.8
20260508161822 12 360 4.8 12.9 0.00 0.00 0.00 52 1007.9
20260508160822 11 360 4.8 12.9 0.00 0.00 0.00 54 1008.0
20260508160322 12 360 9.7 12.9 0.00 0.00 0.00 52 1008.0
20260508155821 12 360 9.7 12.9 0.00 0.00 0.00 52 1008.2
20260508154822 11 360 16.1 12.9 0.00 0.00 0.00 53 1008.2
20260508154322 11 360 3.2 12.9 0.00 0.00 0.00 54 1008.3
20260508153822 11 360 8.0 12.9 0.00 0.00 0.00 54 1008.4
20260508153322 11 360 6.4 12.9 0.00 0.00 0.00 54 1008.4
20260508152822 11 360 20.9 12.9 0.00 0.00 0.00 53 1008.4
20260508152322 11 360 3.2 12.9 0.00 0.00 0.00 54 1008.5
20260508151822 11 360 6.4 12.9 0.00 0.00 0.00 55 1008.5
20260508151322 11 360 4.8 12.9 0.00 0.00 0.00 55 1008.5
20260508150822 11 360 4.8 12.9 0.00 0.00 0.00 56 1008.5
20260508145822 10 360 24.1 12.9 0.00 0.00 0.00 57 1008.5
20260508145322 10 360 3.2 12.9 0.00 0.00 0.00 57 1008.6
20260508144822 10 360 8.0 12.9 0.00 0.00 0.00 57 1008.6
20260508144322 10 360 12.9 12.9 0.00 0.00 0.00 58 1008.6
20260508143822 10 360 24.1 12.9 0.00 0.00 0.00 61 1008.6
20260508143322 10 360 6.4 12.9 0.00 0.00 0.00 61 1008.6
20260508142822 10 360 8.0 12.9 0.00 0.00 0.00 61 1008.5
20260508141822 10 360 8.0 12.9 0.00 0.00 0.00 62 1008.7
20260508141321 10 360 20.9 12.9 0.00 0.00 0.00 63 1008.7
20260508140822 9 360 4.8 29.0 0.00 0.00 0.00 65 1008.7
20260508135824 8 360 20.9 0.0 0.00 0.00 0.00 66 1008.6
20260508135324 8 360 4.8 0.0 0.00 0.00 0.00 65 1008.8
20260508134824 8 360 12.9 0.0 0.00 0.00 0.00 66 1008.8
20260508134324 8 360 19.3 0.0 0.00 0.00 0.00 65 1008.7
20260508133824 8 360 16.1 0.0 0.00 0.00 0.00 65 1008.8
20260508133324 8 360 6.4 0.0 0.00 0.00 0.00 67 1008.8
20260508132824 8 360 3.2 0.0 0.00 0.00 0.00 66 1008.9
20260508132324 8 360 8.0 0.0 0.00 0.00 0.00 69 1009.0
20260508130824 7 360 4.8 0.0 0.00 0.00 0.00 72 1008.9
20260508130324 7 360 6.4 0.0 0.00 0.00 0.00 72 1008.9
20260508125825 6 360 3.2 0.0 0.00 0.00 0.00 76 1008.8
20260508125325 6 360 8.0 0.0 0.00 0.00 0.00 76 1009.0